Notices

What's New in latest Release from April 7th, 2021:

- Updated Glossary, including Speed of Maximum Gust, and Total Hourly Precipitation

- Updated national and regional climate services offices contacts and prices information

- Addition of station inventory lists for 1981-2010, 1971-2000, and 1961-1990 Normals.

If you haven't already, please take our survey and provide feedback about our website: https://eccc.sondage-survey.ca/f/LanguageSelection.aspx?s=442ca660-fcf1-47c0-95a9-59707d6fd709

Hourly Data Report for October 21, 2019

PINAWA
MANITOBA
Current Station Operator: ECCC - MSC

50°10'38.020" N
96°03'53.000" W
268.00 m
503B1ER
71448
WEA

Download Data

Hourly Data (October 2019)
Hourly Data Report for October 21, 2019
TIME
LST
Temp Definition
°C
Dew Point Definition
°C
Rel Hum Definition
%
Precip. Amount Definition
mm

Wind Dir Definition
10's deg

Wind Spd Definition
km/h
Visibility Definition
km
Stn Press Definition
kPa
Hmdx Definition


Wind Chill Definition


Weather Definition


00:00 4.3 LegendMM LegendMM LegendMM 14 3   97.91     LegendNANA
01:00 6.4 LegendMM LegendMM LegendMM 17 3   97.92     LegendNANA
02:00 5.0 LegendMM LegendMM LegendMM 35 1   97.89     LegendNANA
03:00 4.3 LegendMM LegendMM LegendMM 30 3   97.79     LegendNANA
04:00 6.0 LegendMM LegendMM LegendMM 33 7   97.82     LegendNANA
05:00 6.2 LegendMM LegendMM LegendMM 29 5   97.88     LegendNANA
06:00 6.4 LegendMM LegendMM LegendMM 32 7   97.95     LegendNANA
07:00 6.1 LegendMM LegendMM LegendMM 35 5   97.97     LegendNANA
08:00 5.6 LegendMM LegendMM LegendMM 34 9   97.94     LegendNANA
09:00 5.5 LegendMM LegendMM LegendMM 34 10   97.95     LegendNANA
10:00 5.4 LegendMM LegendMM LegendMM 34 14   97.91     LegendNANA
11:00 5.7 LegendMM LegendMM LegendMM 36 9   97.90     LegendNANA
12:00 6.5 LegendMM LegendMM 0.0 36 10   97.85     LegendNANA
13:00 7.4 LegendMM LegendMM 0.0 35 11   97.78     LegendNANA
14:00 7.2 LegendMM LegendMM 0.0 35 13   97.69     LegendNANA
15:00 7.7 LegendMM LegendMM 0.0 35 20   97.61     LegendNANA
16:00 7.9 LegendMM LegendMM 0.0 35 17   97.60     LegendNANA
17:00 7.9 LegendMM LegendMM 0.0 36 15   97.61     LegendNANA
18:00 6.9 LegendMM LegendMM 0.0 35 18   97.63     LegendNANA
19:00 5.9 LegendMM LegendMM 0.0 35 22   97.64     LegendNANA
20:00 5.3 LegendMM LegendMM 0.0 35 21   97.54     LegendNANA
21:00 4.7 LegendMM LegendMM 0.0 35 18   97.51     LegendNANA
22:00 4.2 LegendMM LegendMM 0.0 34 20   97.40     LegendNANA
23:00 3.9 LegendMM LegendMM 0.0 34 20   97.32     LegendNANA

Notes on Data Quality.

Legend

  • E = Estimated
  • M = Missing
  • NA = Not Available*
  • [empty] = Indicates an unobserved value
Date modified: